Temp
10 10 10 10 10 10 10 10 10 10 9 9 9 8 8 8 8 8 8 8 8 8 8 9 9 9 9 9 10 10 10 10 9 9 9 9 9 8 8 8 8 8 8 8 7 7 7 6 6 6 6 6 6 7 7 7 7 7 7 7 7 7 8 8 7 7 7 7 7 7 7 7 7 7 7 7 7 7 7 7 8 8 8 8 7 7
9 10 10 9 9 9 9 10 10 10 9 9 8 8 8 8 8 8 8 8 8 8 8 8 8 9 9 9 9 9 9 9 9 9 8 8 8 8 8 8 8 8 7 7 7 6 6 6 5 5 5 6 6 6 6 6 6 6 7 7 7 7 8 7 7 7 6 6 6 6 6 6 6 6 6 6 6 6 6 7 7 7 7 7 7 7
9 9 9 9 9 9 9 9 9 9 8 8 8 8 8 8 8 7 7 7 8 8 8 8 8 8 9 9 9 9 9 9 8 8 8 8 8 8 8 8 8 7 7 7 6 6 5 5 5 5 5 6 6 6 6 6 6 6 7 7 7 7 7 6 6 6 6 6 6 6 6 6 6 6 6 6 6 6 6 6 6 6 6 6 6 6
9 9 9 9 8 8 8 8 8 8 8 8 7 7 7 7 7 7 7 7 7 7 8 8 8 8 8 8 8 8 8 8 8 8 7 7 7 7 7 7 7 7 7 6 6 5 5 5 5 5 5 6 6 6 6 6 6 6 6 6 6 6 6 6 5 5 5 5 5 5 6 5 5 5 5 5 5 5 6 6 6 6 6 6 6 6
8 8 8 8 8 7 7 7 7 7 7 7 7 7 7 7 7 7 7 7 7 7 7 7 8 8 8 8 8 8 8 7 7 7 7 7 7 7 7 7 7 6 6 6 5 5 4 4 5 5 5 5 5 5 5 5 6 6 6 6 6 6 6 5 5 5 5 5 5 5 5 5 5 5 5 5 5 5 5 5 6 6 6 6 6 6
8 8 8 8 7 7 7 7 7 7 7 6 6 6 6 6 6 6 6 7 7 7 7 7 7 8 8 8 8 7 7 7 7 7 7 7 7 6 6 6 6 6 6 5 5 4 4 4 4 5 5 5 5 5 5 5 5 5 5 5 5 5 5 5 5 5 5 5 5 5 5 5 5 5 5 5 5 5 5 5 5 5 5 5 5 5
8 7 7 7 7 7 7 7 7 7 6 6 6 6 6 6 6 6 6 6 6 6 7 7 7 7 7 7 7 7 6 6 6 6 6 6 6 6 6 6 6 5 5 5 4 4 4 4 4 4 4 4 5 5 5 5 5 5 5 5 5 5 4 4 4 4 4 4 4 5 5 5 4 4 4 4 4 5 5 5 5 5 5 5 5 5
7 7 7 7 6 6 7 6 6 6 6 6 6 6 5 5 5 5 5 6 6 6 6 7 7 7 7 7 6 6 6 6 6 6 6 6 6 6 5 5 5 5 5 4 4 4 4 4 4 4 4 4 4 4 4 4 4 4 4 4 4 4 4 4 4 4 4 4 4 4 4 4 4 4 4 4 4 4 4 4 4 4 4 4 4 4
7 7 6 6 6 6 6 6 6 6 6 6 6 5 5 5 5 5 5 5 5 6 6 6 6 6 6 6 6 6 6 5 5 5 5 5 5 5 5 5 5 5 4 4 4 4 4 3 3 3 3 4 4 4 4 4 4 4 4 4 4 4 4 4 4 4 4 4 4 4 4 4 4 4 4 4 4 4 4 4 4 4 4 4 4 4
7 7 6 6 6 6 6 6 6 6 5 5 5 5 5 4 4 4 4 5 5 5 5 6 6 6 6 6 6 5 5 5 5 5 5 5 5 5 5 5 4 4 4 4 4 3 3 3 3 3 3 3 3 3 3 3 3 3 3 3 3 3 4 4 4 4 4 3 3 3 3 3 3 3 3 4 4 4 4 4 4 4 4 4 4 4
6 6 6 6 6 6 6 6 5 5 5 4 4 4 4 4 4 4 4 4 4 5 5 5 5 5 5 5 5 5 5 5 5 4 5 5 4 4 4 4 4 4 4 3 3 3 3 3 3 3 3 3 3 3 3 3 3 3 3 3 3 3 3 3 3 3 3 3 3 3 3 3 3 3 3 3 3 3 3 3 3 3 3 3 3 3
6 6 6 6 5 5 5 5 5 5 4 4 3 3 3 4 4 4 4 3 4 4 4 5 5 5 5 5 5 5 5 4 4 4 4 4 4 4 4 4 4 4 3 3 3 3 3 3 2 2 2 2 2 2 3 3 3 3 3 3 3 3 3 3 3 3 3 3 3 3 3 3 3 3 2 2 2 3 3 3 3 3 3 3 3 3
6 6 6 5 5 4 4 4 4 4 3 3 3 3 3 3 3 3 4 4 3 4 4 4 4 4 4 4 4 4 4 4 4 4 4 4 4 4 3 3 3 3 3 3 3 3 2 2 2 2 2 2 2 2 3 3 3 3 3 3 3 3 3 2 2 2 2 2 2 2 2 2 2 2 2 2 2 2 2 2 2 2 2 2 2 2
5 5 5 4 4 4 4 4 3 3 3 3 3 4 4 3 3 3 3 3 3 3 3 4 4 4 4 4 4 4 4 4 4 4 4 3 3 3 3 3 3 3 3 3 3 2 2 2 2 2 2 2 2 2 2 2 3 2 2 2 2 2 2 2 2 2 2 1 1 1 1 1 1 1 1 1 1 1 1 1 1 2 2 2 2 2
5 5 4 4 4 3 3 3 3 3 4 4 4 4 4 3 3 3 3 3 3 3 3 3 3 3 3 3 3 3 4 4 4 3 3 3 3 3 3 3 3 3 3 3 3 2 2 2 2 2 1 1 2 2 2 2 2 2 2 2 2 2 2 2 2 1 1 1 0 0 0 0 0 0 0 0 0 0 0 1 1 1 1 1 1 2
5 5 4 4 4 4 4 3 3 4 4 4 3 3 3 3 3 3 3 3 2 2 2 2 2 2 3 3 3 3 3 3 3 3 3 3 3 3 3 3 3 3 3 2 2 2 2 2 2 2 1 1 2 2 2 2 2 2 1 1 1 1 1 1 1 1 0 0 -0 -0 -0 -0 -0 0 -0 -0 -0 0 0 0 0 0 1 1 1 1
5 5 5 5 4 4 4 4 4 4 4 3 3 3 3 3 3 3 3 2 2 2 2 2 2 2 2 2 2 3 3 3 3 3 3 3 3 3 3 3 3 3 2 2 2 2 2 2 2 2 1 1 1 1 1 1 1 1 1 1 1 1 1 1 1 1 0 -0 -0 -0 -0 -0 -0 -0 -0 -0 -0 -0 -0 -0 -0 0 0 0 1 1
5 5 5 5 5 5 4 4 4 4 4 3 3 3 3 3 3 3 3 2 2 2 2 2 3 3 3 2 2 2 2 3 3 3 2 2 2 2 2 2 2 2 2 2 2 2 2 2 2 2 1 1 1 1 1 1 1 1 1 1 1 1 1 1 0 0 -0 -0 -0 -1 -1 -1 -1 -1 -1 -1 -1 -1 -1 -0 -0 -0 -0 0 0 1
5 5 5 5 5 5 5 4 4 4 3 3 3 3 3 3 3 3 3 2 2 2 2 2 3 3 3 3 3 2 2 2 3 2 2 2 2 2 2 2 2 2 2 1 1 1 1 1 1 1 1 1 1 1 1 1 1 0 0 0 0 0 0 0 0 -0 -0 -0 -1 -1 -1 -1 -1 -1 -1 -1 -1 -1 -1 -1 -1 -0 -0 -0 0 0
5 5 5 5 5 5 5 4 4 4 4 4 3 3 3 3 3 3 2 2 2 2 2 3 3 3 3 3 3 3 2 2 2 2 2 1 2 2 2 1 1 1 1 1 1 1 1 1 1 1 1 1 1 1 1 1 1 0 0 0 -0 -0 -0 -0 -0 -0 -0 -1 -1 -1 -1 -1 -1 -1 -1 -1 -1 -1 -1 -1 -1 -1 -1 -0 -0 0
5 5 5 5 6 5 5 5 5 5 5 4 4 3 3 3 3 2 2 2 2 2 2 2 3 3 3 3 3 3 2 2 2 2 2 1 1 1 1 1 1 1 1 1 1 1 1 1 1 1 1 1 1 1 1 1 1 0 0 -0 -0 -0 -0 -0 -0 -1 -1 -1 -1 -1 -1 -1 -1 -1 -1 -1 -1 -1 -1 -1 -1 -1 -1 -1 -0 -0
5 5 5 5 5 5 5 5 5 5 5 5 4 3 3 3 3 2 2 2 2 2 2 3 3 3 3 3 3 3 3 2 2 2 2 1 1 1 1 1 1 1 1 1 1 1 1 1 1 1 1 1 1 1 1 1 1 0 0 -0 -0 -0 -0 -1 -1 -1 -1 -1 -1 -1 -1 -1 -1 -1 -1 -1 -1 -1 -1 -1 -1 -1 -1 -1 -1 -1
5 5 5 5 5 5 5 5 5 5 5 5 5 4 4 3 3 3 3 2 2 2 2 2 2 2 2 3 3 3 2 2 2 2 2 1 1 1 1 1 1 1 1 1 0 1 1 1 1 1 1 1 1 1 1 1 0 0 0 -0 -0 -1 -1 -1 -1 -1 -1 -1 -1 -1 -1 -1 -1 -1 -2 -2 -2 -1 -1 -1 -1 -1 -1 -1 -1 -1
5 5 5 5 5 5 5 5 5 5 5 5 5 5 4 4 4 3 3 3 2 2 2 2 2 2 2 2 2 2 2 2 2 2 2 2 1 1 1 1 1 1 0 0 0 0 1 1 1 1 1 1 1 1 0 0 0 0 -0 -0 -1 -1 -1 -1 -1 -1 -1 -1 -1 -1 -1 -1 -1 -2 -2 -2 -2 -2 -2 -2 -2 -1 -1 -1 -1 -1
4 4 4 5 5 5 5 5 5 5 5 5 5 4 4 4 3 3 3 2 2 2 2 1 1 1 1 1 1 1 1 1 2 2 2 1 1 1 1 1 1 1 0 0 0 0 0 0 1 1 1 1 0 0 0 0 0 -0 -0 -1 -1 -1 -1 -1 -1 -1 -1 -1 -1 -1 -1 -1 -1 -2 -2 -2 -2 -2 -2 -2 -2 -2 -2 -2 -2 -1
4 4 4 4 5 5 5 5 5 5 5 5 5 4 4 3 3 3 2 2 2 2 1 1 1 0 -0 -0 0 0 1 1 1 1 1 1 0 0 1 1 1 1 0 -0 -0 0 0 0 0 0 0 0 0 0 0 -0 -0 -0 -1 -1 -1 -1 -1 -1 -1 -1 -1 -1 -1 -1 -1 -1 -2 -2 -2 -2 -2 -2 -2 -2 -2 -2 -2 -2 -2 -2
4 4 4 4 4 4 4 5 5 5 5 5 5 4 4 3 3 2 2 2 1 1 1 1 1 0 -1 -1 -1 -0 0 1 1 1 1 1 0 -0 0 1 1 0 -0 -0 -0 -0 -0 -0 0 0 0 0 0 0 -0 -0 -1 -1 -1 -1 -1 -1 -1 -1 -1 -1 -1 -1 -1 -1 -1 -1 -1 -2 -2 -2 -2 -2 -2 -2 -2 -2 -2 -2 -2 -2
3 3 4 4 4 4 4 4 4 4 4 4 4 4 4 3 2 2 1 1 1 1 1 2 2 1 -0 -1 -1 -1 -0 0 1 1 1 1 0 -0 -0 0 0 -0 -1 -1 -1 -1 -1 -1 -0 -0 0 0 0 -0 -0 -1 -1 -1 -1 -1 -1 -1 -1 -1 -1 -1 -1 -1 -1 -1 -1 -1 -1 -2 -2 -2 -2 -2 -2 -2 -2 -2 -2 -2 -2 -2
3 3 3 3 4 4 4 4 4 4 4 4 4 4 3 3 3 2 2 2 1 1 2 2 2 1 0 -0 -1 -1 -1 -0 0 0 0 1 0 -0 -0 -0 -0 -1 -1 -1 -2 -2 -2 -1 -1 -1 -0 -0 -0 -0 -1 -1 -1 -1 -1 -1 -1 -1 -1 -1 -1 -1 -1 -1 -1 -1 -1 -1 -2 -2 -2 -2 -2 -2 -2 -2 -2 -2 -2 -2 -3 -3
2 3 3 3 3 3 3 3 3 3 3 3 3 3 3 3 3 3 2 2 1 1 2 2 2 1 0 -1 -1 -2 -1 -1 -0 0 0 0 -0 -1 -1 -1 -1 -1 -1 -1 -2 -2 -2 -2 -2 -1 -1 -1 -1 -1 -1 -1 -1 -1 -1 -1 -1 -1 -1 -1 -1 -1 -1 -1 -1 -1 -1 -2 -2 -2 -2 -2 -2 -2 -2 -2 -2 -2 -2 -3 -3 -3
2 2 3 3 3 3 3 3 3 3 3 3 3 3 3 3 3 3 2 2 2 2 2 2 2 1 0 -1 -1 -1 -1 -1 -0 0 0 0 -1 -1 -1 -1 -1 -1 -1 -1 -2 -3 -2 -2 -2 -2 -2 -1 -1 -1 -1 -1 -1 -1 -1 -1 -1 -1 -1 -1 -1 -1 -1 -1 -1 -1 -2 -2 -2 -2 -2 -2 -2 -2 -2 -2 -2 -2 -2 -3 -3 -3
2 2 2 3 3 3 3 3 3 3 2 2 2 2 3 3 2 2 2 2 2 2 2 2 2 1 0 0 1 0 -0 0 0 0 0 -0 -1 -1 -1 -1 -1 -1 -1 -0 -0 -1 -2 -3 -3 -3 -3 -2 -2 -1 -1 -1 -1 -1 -1 -1 -1 -1 -1 -1 -1 -1 -1 -1 -2 -2 -2 -2 -2 -2 -2 -2 -2 -2 -2 -2 -2 -2 -2 -3 -3 -3
2 2 2 2 2 2 2 2 2 2 2 2 2 2 2 2 2 2 2 2 2 2 2 2 1 1 1 1 1 1 1 1 1 1 0 -0 -0 -1 -1 -1 -1 -1 -1 -0 0 -0 -1 -2 -3 -3 -3 -3 -2 -2 -1 -1 -1 -1 -1 -1 -1 -1 -1 -1 -1 -1 -1 -2 -2 -2 -2 -2 -2 -1 -1 -1 -1 -2 -2 -2 -2 -2 -2 -3 -3 -3
2 2 2 2 2 2 2 2 2 2 2 2 2 2 2 2 2 2 2 1 2 2 2 2 2 1 1 0 1 1 1 1 1 1 0 -0 -0 -0 -1 -1 -1 -1 -1 -1 -1 -1 -1 -2 -2 -3 -3 -3 -3 -2 -2 -1 -1 -1 -1 -1 -1 -2 -2 -2 -1 -1 -2 -2 -2 -2 -2 -2 -2 -2 -2 -2 -2 -2 -2 -2 -2 -2 -2 -3 -3 -3
1 1 1 1 1 1 1 1 1 1 2 2 2 2 1 1 1 1 1 1 1 1 1 2 2 2 2 1 1 1 1 2 2 1 1 0 0 -0 -1 -1 -1 -1 -1 -1 -1 -1 -2 -2 -2 -2 -3 -3 -3 -3 -2 -2 -1 -1 -2 -2 -2 -2 -2 -2 -2 -2 -2 -2 -2 -2 -2 -2 -2 -2 -2 -2 -2 -2 -2 -2 -2 -2 -2 -3 -3 -3
0 0 0 0 0 1 1 1 1 1 1 1 1 1 1 1 1 1 1 1 1 1 1 1 2 2 2 2 2 2 2 3 2 2 1 0 0 0 -0 -1 -1 -1 -1 -1 -1 -1 -2 -2 -2 -2 -3 -3 -3 -3 -3 -2 -2 -2 -2 -2 -2 -2 -2 -2 -2 -2 -2 -2 -2 -2 -2 -2 -2 -2 -2 -2 -2 -2 -2 -2 -1 -2 -2 -2 -3 -3
0 0 0 0 0 0 0 0 1 1 1 1 1 1 1 1 1 1 1 1 1 1 1 1 1 2 2 2 2 3 3 3 3 2 1 1 0 0 0 -0 -1 -1 -1 -1 -1 -1 -2 -2 -3 -3 -3 -3 -3 -3 -3 -3 -2 -2 -2 -2 -2 -2 -2 -2 -2 -2 -2 -2 -2 -2 -2 -2 -2 -2 -2 -2 -2 -2 -2 -1 -1 -1 -2 -2 -2 -2
-0 -0 -0 -0 -0 -0 -0 -0 -0 0 0 0 0 0 0 0 0 0 0 1 1 1 1 1 1 1 1 1 2 2 2 3 2 2 1 1 0 0 0 -0 -0 -0 -0 -0 -1 -1 -1 -2 -3 -3 -3 -3 -3 -3 -3 -3 -3 -2 -2 -2 -2 -2 -2 -2 -2 -2 -2 -2 -2 -2 -2 -2 -2 -2 -2 -2 -2 -2 -2 -1 -1 -1 -1 -2 -2 -2
-0 -0 -0 -0 -0 -0 -0 -1 -1 -1 -0 -0 -0 -0 -0 -0 0 0 0 0 1 1 1 1 1 1 1 1 1 1 2 2 2 1 1 0 -0 -0 -0 -0 -0 -0 -0 -0 -0 -1 -1 -1 -2 -2 -3 -2 -2 -2 -2 -2 -2 -2 -2 -2 -3 -3 -3 -3 -2 -2 -2 -2 -2 -2 -2 -2 -2 -2 -2 -2 -2 -2 -2 -1 -1 -1 -1 -1 -2 -2
-0 -0 -0 -0 -0 -0 -0 -1 -1 -1 -1 -1 -1 -1 -1 -0 -0 -0 -0 0 0 0 0 1 1 1 1 1 1 1 1 1 1 0 0 0 -0 -1 -1 -0 -0 -0 -1 -1 -1 -1 -1 -1 -1 -1 -1 -1 -2 -2 -3 -2 -2 -2 -2 -3 -3 -3 -3 -3 -3 -3 -2 -2 -2 -2 -2 -2 -3 -3 -3 -2 -2 -2 -2 -2 -1 -1 -1 -1 -1 -1
-0 -0 -0 -0 -0 -0 -0 -1 -1 -1 -1 -1 -1 -1 -1 -1 -1 -1 -1 -1 -0 -0 -0 0 0 0 0 0 0 0 0 -0 -0 -0 -0 -0 -1 -1 -1 -1 -0 -0 -1 -1 -1 -1 -1 -1 -1 -1 -1 -1 -1 -2 -2 -2 -2 -2 -2 -3 -3 -2 -2 -2 -3 -3 -3 -3 -2 -2 -2 -3 -3 -3 -3 -3 -2 -2 -2 -2 -2 -2 -2 -2 -2 -2
-0 -0 -0 -0 -0 -0 -0 -1 -1 -1 -1 -1 -1 -1 -1 -1 -1 -1 -1 -1 -1 -1 -1 -0 -0 -0 -1 -1 -1 -1 -1 -1 -1 -1 -1 -1 -1 -1 -2 -1 -1 -1 -1 -1 -1 -1 -1 -1 -1 -1 -1 -1 -1 -2 -2 -2 -2 -2 -2 -2 -2 -2 -2 -2 -2 -2 -2 -2 -2 -2 -2 -3 -3 -3 -3 -3 -3 -2 -2 -2 -2 -2 -2 -2 -2 -2
-1 -1 -1 -1 -0 -0 -1 -1 -1 -1 -1 -2 -2 -2 -2 -1 -1 -1 -1 -2 -2 -1 -1 -1 -1 -1 -1 -2 -2 -2 -2 -2 -2 -2 -2 -2 -2 -2 -2 -2 -1 -1 -1 -1 -1 -1 -1 -1 -1 -1 -1 -1 -1 -1 -2 -2 -2 -2 -2 -2 -2 -2 -2 -2 -2 -2 -2 -2 -2 -2 -2 -2 -3 -3 -3 -3 -3 -3 -3 -3 -3 -3 -3 -3 -2 -2
-1 -1 -1 -1 -1 -1 -1 -1 -1 -2 -2 -2 -2 -2 -2 -2 -2 -2 -2 -2 -2 -2 -2 -2 -1 -1 -2 -3 -3 -3 -3 -2 -2 -2 -2 -2 -2 -2 -2 -2 -2 -1 -1 -1 -1 -1 -1 -1 -1 -1 -1 -1 -1 -1 -2 -2 -2 -2 -2 -2 -2 -2 -2 -2 -2 -2 -2 -2 -2 -2 -3 -3 -3 -3 -3 -3 -3 -3 -3 -3 -3 -3 -3 -3 -3 -3
-1 -1 -1 -1 -1 -1 -1 -2 -2 -2 -2 -2 -2 -3 -2 -2 -2 -2 -2 -2 -2 -2 -2 -2 -2 -2 -4 -4 -4 -4 -3 -3 -3 -3 -3 -3 -3 -3 -2 -2 -2 -2 -2 -2 -1 -1 -1 -1 -1 -1 -1 -1 -1 -1 -1 -2 -2 -2 -2 -2 -2 -2 -2 -2 -2 -2 -2 -2 -3 -3 -3 -3 -3 -3 -4 -4 -4 -4 -4 -4 -4 -3 -3 -3 -3 -3
-1 -1 -1 -1 -1 -2 -2 -2 -2 -2 -3 -3 -3 -3 -3 -3 -2 -2 -2 -3 -3 -3 -3 -2 -2 -3 -4 -5 -5 -5 -4 -4 -4 -4 -4 -3 -3 -3 -3 -2 -2 -2 -2 -2 -2 -2 -2 -2 -2 -2 -2 -2 -2 -2 -2 -2 -2 -2 -2 -2 -3 -2 -2 -2 -3 -3 -3 -3 -3 -3 -3 -3 -4 -4 -4 -4 -4 -4 -4 -4 -4 -4 -4 -3 -3 -3
-2 -2 -2 -2 -2 -2 -2 -2 -3 -3 -3 -3 -3 -3 -3 -3 -3 -3 -3 -3 -3 -3 -3 -2 -2 -3 -3 -4 -5 -5 -5 -5 -4 -4 -4 -4 -3 -3 -3 -3 -3 -3 -3 -3 -3 -2 -2 -2 -2 -2 -2 -2 -2 -2 -2 -2 -2 -2 -2 -2 -3 -3 -3 -3 -3 -3 -3 -3 -3 -3 -3 -4 -4 -4 -4 -4 -4 -4 -4 -4 -4 -4 -4 -3 -3 -3
-2 -2 -2 -2 -2 -3 -3 -3 -3 -3 -3 -3 -3 -3 -3 -3 -3 -3 -3 -3 -3 -3 -3 -3 -3 -3 -3 -4 -4 -4 -4 -5 -5 -4 -4 -4 -4 -4 -3 -3 -3 -3 -3 -3 -3 -3 -3 -2 -2 -2 -2 -2 -2 -2 -2 -2 -2 -2 -2 -2 -3 -3 -3 -3 -3 -3 -3 -3 -3 -3 -4 -4 -4 -4 -4 -4 -4 -4 -4 -4 -4 -4 -3 -3 -3 -3
-2 -2 -2 -3 -3 -3 -3 -3 -3 -3 -3 -4 -4 -4 -3 -3 -3 -3 -3 -3 -3 -3 -3 -3 -3 -3 -4 -4 -4 -4 -4 -4 -5 -5 -4 -4 -4 -4 -4 -4 -3 -3 -3 -3 -3 -3 -3 -3 -3 -3 -3 -2 -2 -2 -2 -2 -2 -2 -2 -3 -3 -3 -3 -3 -3 -3 -3 -3 -4 -4 -4 -4 -4 -4 -4 -4 -5 -4 -4 -4 -4 -4 -3 -3 -3 -3
-2 -2 -3 -3 -3 -3 -3 -3 -3 -3 -3 -4 -4 -4 -4 -4 -3 -3 -3 -3 -3 -3 -3 -3 -3 -3 -4 -4 -4 -4 -4 -4 -5 -5 -5 -4 -4 -4 -4 -4 -4 -4 -4 -4 -4 -3 -3 -3 -3 -3 -3 -3 -2 -2 -2 -2 -2 -2 -3 -3 -3 -3 -3 -3 -3 -3 -3 -4 -4 -4 -4 -4 -4 -4 -5 -5 -5 -5 -4 -4 -4 -4 -4 -4 -3 -3
-3 -3 -3 -3 -3 -3 -3 -3 -3 -3 -4 -4 -4 -4 -4 -4 -4 -4 -4 -3 -3 -3 -3 -3 -3 -3 -3 -4 -4 -4 -4 -4 -5 -5 -5 -5 -4 -4 -4 -4 -4 -4 -4 -5 -5 -5 -4 -4 -4 -4 -3 -3 -3 -3 -2 -2 -2 -3 -3 -3 -3 -3 -3 -3 -3 -3 -3 -4 -4 -4 -4 -4 -5 -5 -5 -5 -5 -5 -5 -4 -4 -3 -4 -4 -4 -4
Height
788 789 789 789 789 788 788 788 788 788 788 788 789 789 789 789 789 789 790 790 790 790 791 791 792 792 792 792 792 792 792 793 793 794 795 795 796 796 797 798 798 799 800 801 801 802 802 803 803 804 804 804 804 805 805 806 807 807 808 808 808 808 809 809 809 810 810 810 809 810 810 811 812 812 813 813 814 815 814 814 813 813 813 814 815 817
787 787 787 788 788 787 787 786 787 787 787 787 788 788 788 788 788 788 789 789 789 789 790 790 791 791 792 792 792 792 792 792 792 793 793 794 795 795 796 797 798 798 799 800 801 801 802 802 803 803 803 804 804 804 805 805 806 807 807 807 808 808 808 808 809 809 809 809 809 809 810 811 811 812 812 813 813 814 813 813 813 813 813 814 815 816
785 785 785 786 786 786 786 785 785 785 785 786 786 787 787 787 787 788 788 788 788 788 789 789 790 790 791 791 791 791 791 791 792 792 793 793 794 794 795 796 797 798 798 799 800 800 801 802 802 803 803 803 803 803 804 804 805 806 806 806 806 806 806 807 807 807 808 808 808 809 809 810 810 811 812 812 813 813 813 812 812 813 813 813 814 815
784 783 783 784 784 784 784 784 784 784 784 785 785 786 786 786 786 786 787 787 787 787 788 788 788 789 789 790 790 790 790 791 791 791 792 792 793 793 794 795 796 797 798 798 799 800 800 801 802 802 802 802 803 803 803 803 804 804 805 804 805 805 805 805 806 806 807 807 808 808 809 809 810 810 811 811 812 812 812 812 812 812 813 813 813 814
783 782 782 783 783 783 783 783 783 783 783 784 784 785 785 785 785 785 786 786 786 786 787 787 787 788 788 788 789 789 789 790 790 791 791 792 792 793 794 794 795 796 797 798 798 799 800 800 801 801 802 802 802 802 803 803 803 804 804 804 804 804 805 805 805 806 806 807 807 808 808 808 809 809 810 810 811 811 811 811 811 812 812 813 813 814
781 781 781 782 782 782 782 782 782 783 783 783 783 783 784 784 784 784 784 785 785 785 785 786 786 787 787 788 788 788 789 789 789 790 790 791 792 792 793 794 795 796 797 797 798 799 799 800 800 801 801 801 801 802 802 803 803 803 804 804 804 804 804 804 805 805 806 806 807 808 808 808 808 809 809 810 810 810 810 811 811 811 812 812 813 813
780 780 780 780 781 781 781 781 781 781 782 782 782 782 783 783 783 783 783 783 784 784 785 785 785 786 786 787 787 788 788 788 789 789 790 790 791 792 793 793 794 795 796 797 798 798 799 799 800 800 800 801 801 801 802 802 803 803 803 803 803 803 804 804 804 805 806 806 807 807 808 808 808 808 809 809 809 809 810 810 810 811 811 811 812 812
779 778 779 779 779 780 780 780 780 780 780 780 781 781 781 781 781 782 782 783 783 783 784 784 784 785 785 786 786 787 787 788 788 788 789 790 791 791 792 793 794 795 795 796 797 798 798 798 799 799 800 800 801 801 802 802 802 803 803 803 803 803 803 804 804 804 805 806 806 807 807 807 808 808 808 808 808 809 809 809 809 810 810 810 811 811
777 777 777 777 778 778 778 778 779 779 779 779 779 779 780 780 780 780 781 782 782 783 783 783 783 784 784 785 785 786 786 787 787 788 788 789 790 791 792 793 793 794 795 796 796 797 797 798 798 798 799 800 800 801 801 801 802 802 802 802 803 803 803 803 803 804 805 805 806 806 806 807 807 807 807 807 807 808 808 808 808 809 809 809 810 810
775 776 775 776 776 776 777 777 777 777 777 778 778 778 778 778 779 779 780 781 781 782 782 783 783 783 783 784 784 785 785 786 787 787 788 788 789 790 791 792 793 793 794 795 796 796 797 797 797 798 798 799 800 800 800 801 801 801 801 802 802 802 802 803 803 803 804 804 805 805 805 806 806 806 806 806 806 806 807 807 807 808 808 808 809 809
773 774 774 774 774 775 775 775 775 776 776 777 777 777 777 777 778 778 779 779 780 781 781 782 782 782 783 783 783 784 784 785 786 787 788 788 789 790 790 791 792 793 793 794 795 795 796 796 797 797 798 798 799 799 799 800 800 800 801 801 801 801 802 802 802 803 803 803 804 804 804 805 805 805 805 805 805 805 805 805 806 806 807 807 808 809
771 772 772 772 773 773 773 773 774 774 775 776 776 776 776 776 776 777 777 778 778 779 780 781 781 781 782 782 782 783 783 784 785 786 787 788 788 789 790 791 792 792 793 794 794 795 795 795 796 797 797 798 798 798 798 799 799 800 800 800 801 801 801 801 801 802 802 803 803 803 804 804 804 804 804 804 804 804 804 804 804 805 805 806 807 808
769 770 770 770 770 771 771 772 773 773 774 774 774 774 774 774 775 775 776 777 777 778 778 779 780 780 781 781 781 782 782 783 784 784 786 786 787 788 789 790 791 791 792 793 793 793 794 795 795 796 796 797 797 798 798 798 799 799 799 800 800 800 800 800 801 801 802 802 802 803 803 803 803 803 803 803 803 803 803 803 803 804 805 805 806 807
768 768 768 768 768 769 769 770 771 772 772 772 771 771 772 773 773 774 776 776 777 777 778 778 779 779 780 780 780 781 781 782 783 784 785 786 786 787 788 789 789 790 791 791 792 792 793 793 794 795 795 796 796 797 797 798 798 798 799 799 799 799 799 799 800 800 801 801 802 802 802 802 802 802 802 803 803 803 803 803 803 803 804 805 806 807
766 766 767 767 767 767 767 768 768 769 769 769 769 770 771 772 773 773 774 775 776 777 778 778 778 779 779 779 779 780 780 781 782 783 784 785 785 786 787 788 788 789 789 790 790 791 791 792 793 793 794 795 795 796 796 797 797 798 798 798 798 798 798 799 799 799 800 801 801 801 802 802 802 802 802 802 802 802 802 803 803 803 804 804 805 806
764 764 764 764 764 764 765 765 766 766 767 767 768 769 770 770 771 772 773 773 774 775 777 778 778 779 779 778 778 779 779 780 781 782 783 783 784 785 786 787 787 788 788 789 789 790 790 791 792 793 793 794 794 795 795 796 797 797 797 797 798 798 798 798 798 799 799 800 801 801 801 801 801 801 801 802 802 802 802 802 803 803 803 804 805 805
761 762 762 762 762 762 763 763 763 764 765 766 767 767 768 768 769 770 771 772 773 774 775 776 777 778 778 778 778 778 778 779 779 780 781 782 783 784 785 785 786 787 787 788 788 789 790 790 791 792 793 793 794 794 795 795 796 796 796 797 797 797 797 797 798 798 799 800 800 800 800 800 801 801 801 801 801 802 802 802 802 803 803 804 804 805
759 759 759 759 760 760 761 761 762 763 763 764 765 765 766 767 768 768 769 770 771 772 773 773 774 774 774 775 775 775 776 777 778 779 780 781 782 783 783 784 785 786 786 787 788 788 789 790 791 791 792 793 793 793 794 794 795 795 796 796 796 796 796 797 797 798 798 799 799 800 800 800 800 800 801 801 801 801 801 802 802 803 803 803 804 804
756 756 757 757 758 758 758 759 760 761 761 762 763 764 765 765 766 767 768 768 769 769 770 771 771 771 771 771 772 773 774 775 777 778 779 780 781 782 782 783 784 785 786 786 787 788 788 789 790 791 791 792 793 793 793 794 794 795 795 795 795 795 796 796 797 798 798 799 799 799 799 799 800 800 800 800 801 801 801 802 802 802 803 803 804 804
754 754 754 755 755 756 756 756 757 758 758 759 761 762 763 764 765 765 766 767 767 768 768 768 769 769 769 770 770 771 773 774 776 777 778 778 779 780 781 782 783 784 785 785 786 787 788 788 789 790 790 791 792 792 793 793 793 794 794 794 794 795 795 796 796 797 798 798 798 798 799 799 799 799 799 800 800 800 801 801 802 802 803 803 803 803
752 751 751 753 753 754 754 754 754 755 756 758 759 760 761 762 763 763 764 765 765 766 767 767 767 768 768 769 769 770 772 773 774 775 776 777 778 779 780 781 782 783 784 784 785 786 787 787 788 789 789 790 791 791 792 792 793 793 793 793 794 794 795 795 796 797 797 798 798 798 798 798 798 799 799 799 800 800 800 801 801 802 802 802 803 803
749 749 749 751 751 752 752 752 753 754 755 756 757 757 758 759 760 761 762 763 763 764 765 765 766 767 767 768 768 769 770 771 772 773 775 776 777 778 779 780 781 782 783 783 784 785 786 786 787 788 789 789 790 790 791 791 792 792 792 793 793 793 794 795 795 796 796 797 797 797 798 798 798 798 798 799 799 800 800 801 801 801 802 802 802 803
747 748 748 749 749 750 750 751 751 752 753 753 754 754 755 756 757 758 759 760 761 763 763 764 765 765 766 767 768 768 770 770 771 772 773 775 775 776 777 778 779 781 781 782 783 783 784 785 786 787 788 788 789 789 790 790 791 791 791 792 792 793 793 794 795 795 796 796 796 797 797 797 798 798 798 798 799 799 800 800 800 801 801 802 802 802
746 746 747 747 748 748 749 749 750 750 751 752 752 753 754 755 756 757 758 759 761 762 762 763 764 765 766 767 767 768 769 770 771 772 772 773 773 774 775 777 778 779 780 781 782 783 783 784 785 786 787 788 788 788 789 789 790 790 790 791 792 792 793 793 794 794 795 795 796 796 796 797 797 797 798 798 798 799 799 799 800 800 801 801 801 802
744 744 745 745 746 746 747 748 748 748 749 750 751 753 753 755 756 757 758 759 760 761 762 763 764 765 765 766 766 767 767 768 769 770 771 771 772 773 774 775 777 778 779 780 781 782 783 783 784 785 786 786 787 787 788 788 788 789 789 790 791 791 792 793 793 794 794 795 795 795 796 796 796 797 797 797 798 798 798 799 799 799 800 800 801 801
743 743 743 743 744 744 745 746 746 747 748 749 750 751 752 754 755 756 757 758 759 760 761 763 763 764 764 765 765 765 766 767 768 768 769 770 770 772 773 774 776 777 778 779 780 781 782 782 783 783 784 785 786 786 787 787 788 788 788 789 790 791 791 792 793 793 793 794 794 795 795 795 796 796 797 797 797 798 798 798 798 799 799 800 800 800
741 741 742 742 743 743 744 744 745 746 747 748 748 749 751 752 753 755 756 756 757 758 759 761 762 763 763 764 764 764 764 765 766 767 768 768 769 770 772 773 774 776 777 778 779 780 780 781 782 782 783 784 784 785 785 786 786 787 788 788 789 790 790 791 792 792 793 793 794 794 794 795 795 796 796 797 797 797 798 798 798 798 799 799 799 800
739 740 740 740 741 742 742 743 744 744 745 746 747 748 749 750 751 752 753 753 754 756 758 758 759 760 762 762 762 763 763 764 765 766 766 767 768 769 770 772 773 774 776 777 778 779 780 780 780 781 782 783 783 783 784 785 785 786 787 787 788 789 789 790 791 792 792 793 793 793 794 794 795 795 796 796 797 797 797 798 798 798 798 798 799 799
738 738 738 739 739 740 741 741 742 743 744 745 746 747 748 748 748 749 749 751 753 754 755 756 757 758 759 760 761 762 763 763 763 764 765 767 767 768 769 771 772 773 774 776 778 779 779 779 779 780 780 781 782 782 783 783 784 785 785 786 787 788 788 789 790 791 792 792 793 793 793 794 794 795 795 796 796 797 797 797 798 798 798 798 798 798
737 737 737 737 738 738 739 740 741 742 743 743 744 745 746 746 747 747 748 749 751 752 753 754 755 756 757 759 761 762 762 761 762 763 764 765 766 767 768 770 771 772 773 775 777 778 778 778 778 779 779 780 780 781 782 783 783 784 784 785 786 787 788 788 789 790 791 791 792 792 793 793 794 794 795 795 796 796 797 797 797 797 798 798 798 798
735 735 735 736 736 737 737 738 739 740 741 742 743 744 744 745 746 747 747 748 748 749 751 752 753 753 754 757 759 760 759 758 759 761 762 763 764 765 767 768 769 770 771 773 774 776 777 777 777 778 778 779 779 780 781 781 782 783 783 784 785 786 787 788 788 789 790 790 791 791 792 793 793 793 794 794 795 796 796 796 797 797 797 797 798 798
733 734 734 734 734 735 736 736 737 738 739 741 742 742 743 744 744 745 745 746 747 748 749 750 751 751 752 753 754 754 754 755 757 759 761 762 763 764 765 766 768 769 770 771 772 773 775 775 776 777 777 778 778 779 780 781 781 782 783 783 784 785 786 787 788 788 789 789 790 790 791 792 792 793 793 794 794 795 795 796 796 796 796 797 797 798
732 733 733 733 733 733 734 735 735 737 738 739 740 740 741 742 743 743 744 744 745 746 747 748 749 749 750 751 751 752 752 753 755 757 759 760 762 763 764 765 766 768 769 770 771 771 772 773 774 775 776 776 777 778 779 779 780 781 782 782 783 784 785 786 786 787 788 788 789 789 790 791 791 792 793 793 793 794 795 795 795 796 796 796 796 797
731 731 732 732 732 732 733 733 734 735 736 737 738 738 739 740 741 742 743 743 744 745 746 747 747 748 749 750 751 751 752 753 754 756 757 758 759 761 763 764 765 766 768 769 770 770 771 771 772 773 774 775 776 777 778 778 779 780 781 781 782 783 783 784 785 786 786 787 788 788 789 790 791 791 792 792 793 793 794 794 795 795 795 795 796 796
730 730 730 730 730 731 731 732 732 733 734 735 736 737 738 739 740 741 742 743 743 744 745 746 746 746 747 748 749 750 751 752 753 755 756 757 758 759 761 762 763 764 766 767 768 769 770 770 771 771 773 774 775 776 777 778 778 779 780 781 781 782 783 783 784 784 785 786 787 788 788 789 790 790 791 792 792 793 793 793 794 794 795 795 795 795
728 728 729 729 729 729 729 730 731 731 732 733 734 735 737 738 739 739 740 741 742 743 744 745 745 746 746 746 747 748 749 751 752 753 754 755 756 757 759 760 761 762 764 765 766 767 768 769 770 770 771 773 774 775 775 776 777 778 779 780 780 781 782 782 783 784 784 785 786 787 787 788 789 789 790 790 791 792 792 793 793 793 794 794 795 795
726 727 727 727 727 728 728 728 729 729 730 731 733 734 735 736 737 738 739 740 741 742 743 744 744 745 746 747 747 748 749 750 751 752 753 754 755 756 757 758 759 760 762 763 764 766 767 768 769 770 771 771 772 773 774 775 776 777 778 779 779 780 781 782 782 783 784 784 785 786 786 787 788 788 789 789 790 791 791 792 792 793 793 793 794 794
724 725 725 726 726 726 727 727 728 728 729 730 731 732 733 735 736 737 738 739 740 741 742 743 744 745 746 747 748 748 749 750 751 751 752 753 754 755 756 757 758 759 760 761 762 763 765 766 768 769 770 770 770 771 772 773 774 776 777 778 778 779 780 781 781 782 783 783 784 785 786 786 787 787 788 788 789 789 790 790 791 791 792 792 793 793
722 723 723 724 724 725 725 725 726 727 728 729 730 731 732 733 735 736 737 738 739 740 741 742 743 744 745 746 747 748 749 749 750 751 751 752 753 754 755 756 757 758 760 761 762 763 763 764 765 766 768 768 770 770 771 772 773 774 775 777 778 778 779 779 780 781 782 783 783 784 784 785 786 786 787 787 788 788 788 789 790 790 791 791 791 792
720 720 721 722 722 723 723 724 725 726 727 728 728 730 731 732 733 735 736 738 738 740 741 742 742 743 744 745 746 747 748 749 749 750 751 752 752 753 754 755 756 758 759 760 761 762 763 763 764 765 766 767 768 769 770 771 772 773 774 776 777 777 778 778 779 780 781 781 782 783 783 784 785 785 786 786 786 787 787 788 788 789 789 790 790 790
718 718 719 720 721 722 723 723 724 725 725 726 728 728 730 731 732 734 735 737 738 739 740 741 742 743 744 745 745 746 747 748 749 749 750 751 752 753 753 755 756 757 758 759 760 761 762 763 763 764 765 766 767 768 769 770 771 772 773 774 774 775 776 777 778 779 779 780 781 782 783 783 784 784 784 785 785 786 786 787 787 788 788 788 788 789
716 717 718 718 720 721 722 723 723 724 725 725 726 727 728 729 731 732 734 735 736 738 738 740 741 742 743 744 745 746 747 747 748 749 749 750 751 752 753 754 755 756 757 758 759 761 762 762 763 764 765 765 766 767 768 769 770 771 772 772 773 775 776 777 777 778 778 779 780 781 781 782 783 783 783 784 784 784 785 785 786 786 786 787 787 787
715 716 716 717 718 719 720 721 722 723 724 725 725 726 727 728 729 731 732 733 735 736 738 738 739 741 742 743 744 745 746 747 748 748 749 750 751 752 753 754 755 756 757 758 759 760 761 762 763 763 764 765 765 766 767 768 769 770 771 772 773 774 775 775 775 776 777 778 779 779 780 781 781 782 782 783 783 783 784 784 784 785 785 785 786 786
714 715 716 716 717 718 719 720 721 722 723 723 724 725 726 727 728 730 731 732 733 735 736 738 739 740 741 742 743 744 745 746 747 748 749 750 751 752 753 753 754 755 756 757 758 759 760 761 762 763 764 764 765 765 766 767 768 769 770 771 772 772 773 773 774 775 776 777 778 778 779 780 780 781 781 782 782 782 782 783 783 783 784 784 785 785
713 714 715 715 716 717 718 718 719 721 722 722 723 724 725 727 728 729 730 731 733 734 735 736 738 739 741 742 743 744 745 746 747 748 748 749 750 751 752 753 754 755 756 757 758 758 759 760 761 762 763 763 764 765 765 766 767 768 769 770 771 772 773 773 773 774 775 776 777 778 778 779 779 780 780 780 780 781 781 781 782 782 783 783 783 784
712 713 713 713 714 715 716 717 718 720 721 722 722 723 724 726 727 728 729 730 732 733 734 735 736 738 739 741 742 743 744 745 746 748 748 749 750 751 752 753 753 754 756 757 758 758 759 759 760 761 762 763 763 764 765 766 767 768 768 769 770 771 772 773 773 773 774 775 776 777 778 778 778 779 779 779 779 780 780 780 781 781 782 782 783 783
710 711 711 712 713 714 715 716 718 719 720 721 722 723 723 725 726 728 729 730 731 732 733 735 736 737 738 739 740 742 743 744 745 747 748 749 749 750 751 752 753 754 755 756 757 758 758 759 760 760 761 762 763 763 764 765 766 767 768 768 770 770 771 772 772 773 774 774 775 776 777 777 778 778 778 778 778 779 779 779 780 780 781 781 782 782
708 709 710 711 712 713 714 716 717 718 719 720 721 722 723 724 725 727 728 729 730 731 733 734 735 736 737 738 739 740 741 743 744 745 747 748 749 749 751 752 753 753 754 755 756 757 757 758 759 760 760 761 762 763 763 764 765 766 767 768 769 769 770 771 772 773 773 774 774 775 775 776 776 777 777 778 778 778 778 778 779 779 779 780 780 781
706 708 709 710 711 712 713 714 716 717 718 718 720 721 722 723 725 726 727 728 729 730 731 733 733 735 736 738 738 739 741 742 743 744 746 747 748 749 750 751 752 753 754 755 756 756 757 758 758 759 760 760 761 762 763 763 765 766 767 767 768 769 769 770 771 772 773 773 773 774 774 775 776 776 777 777 777 777 777 778 778 778 778 779 779 779
705 706 708 709 710 711 712 713 714 716 717 718 719 720 722 723 724 725 726 727 728 729 730 731 732 733 735 736 738 739 740 741 742 743 745 746 747 748 749 750 751 752 753 754 755 756 757 758 758 759 759 759 760 761 762 763 764 765 766 767 767 768 769 770 770 771 772 772 773 773 774 774 775 776 776 776 776 776 776 776 777 777 777 778 778 778
703 705 706 708 709 710 711 712 713 714 715 716 718 719 721 722 723 724 725 726 727 728 729 730 732 733 734 735 736 738 738 740 741 742 743 744 745 747 748 749 750 751 753 754 755 756 757 758 758 758 758 759 759 760 761 762 763 764 765 765 766 767 768 769 770 770 771 772 772 773 773 774 774 775 775 775 776 776 775 775 775 776 777 777 777 778
Wind_Speed
19 19 19 18 16 16 16 17 17 16 17 17 17 17 17 16 17 18 20 22 22 22 21 20 19 20 20 22 23 24 25 25 24 23 23 21 20 18 16 15 13 12 11 10 10 10 9 9 8 8 8 8 8 8 8 7 7 7 6 6 7 7 9 11 12 12 12 11 11 11 11 11 11 10 11 11 10 9 8 8 7 7 7 7 7 6
17 18 18 18 18 17 18 18 18 18 17 17 17 17 17 16 16 17 19 21 22 22 22 21 20 20 20 21 22 23 23 24 23 22 22 21 19 18 16 15 13 12 10 10 9 9 8 8 8 8 9 9 9 9 10 10 9 9 9 10 10 11 12 13 13 12 11 11 11 11 11 11 11 11 10 10 10 9 8 8 8 8 8 9 8 7
17 17 18 19 19 19 19 19 19 18 17 17 17 17 16 16 16 17 19 21 22 22 22 21 20 20 21 22 22 22 22 22 22 21 20 20 19 17 16 14 13 11 10 9 9 8 8 9 10 11 11 12 12 12 13 13 13 13 13 14 15 16 15 15 15 14 12 12 11 11 11 11 11 11 11 10 10 10 9 9 9 9 9 9 9 8
16 17 18 19 19 19 19 18 17 17 16 16 16 16 16 16 17 17 19 20 21 22 22 22 21 21 22 23 23 23 22 22 21 20 20 19 18 17 15 14 12 11 9 9 8 9 9 10 12 13 13 14 14 14 15 15 15 15 16 16 17 18 17 16 15 14 13 13 12 12 11 11 11 11 11 11 11 10 10 10 10 10 10 9 9 8
15 16 17 17 17 18 17 17 16 15 16 16 16 16 16 16 17 17 18 20 21 21 21 21 21 22 22 23 23 23 22 21 20 20 19 18 17 16 14 13 12 10 9 8 8 9 11 12 13 14 14 15 15 15 15 16 16 16 16 16 17 17 16 15 15 14 14 13 13 12 12 12 12 11 12 12 11 11 10 10 10 10 10 10 9 9
13 14 14 15 15 16 16 15 15 15 15 16 16 17 17 18 18 18 18 20 20 21 21 21 22 22 23 23 23 22 21 20 20 19 18 17 16 15 14 12 11 9 8 8 9 10 12 13 14 14 15 15 15 15 15 16 16 16 16 16 16 16 15 15 14 13 13 13 13 12 12 12 12 12 12 12 11 11 10 10 10 10 10 10 9 9
12 12 12 13 14 15 15 15 16 16 16 17 18 18 18 19 19 19 20 20 20 20 20 21 22 23 22 22 22 21 20 19 19 18 17 16 15 14 13 11 10 9 8 8 10 12 13 14 14 14 15 15 15 15 15 15 15 15 15 15 14 14 14 14 13 13 12 13 13 13 12 12 12 12 12 12 11 11 11 10 10 10 10 9 9 9
12 12 13 13 14 15 16 16 16 17 18 19 19 19 19 19 20 20 20 20 20 20 20 21 22 22 22 22 21 20 19 19 18 17 17 15 14 13 12 10 9 8 8 9 11 13 14 15 14 14 15 15 15 14 14 14 14 15 14 14 14 14 13 13 13 13 13 13 13 13 13 13 13 13 13 13 13 13 12 12 11 11 10 9 9 9
15 14 15 16 16 15 16 17 18 18 19 20 20 19 19 19 19 20 20 20 20 20 20 21 21 22 22 22 21 20 19 19 18 17 17 15 14 13 11 10 9 9 9 11 13 14 15 15 15 15 15 14 14 14 14 14 14 14 14 14 14 14 13 14 14 14 14 14 14 14 14 14 14 15 15 15 14 14 14 14 13 12 11 10 9 8
18 17 17 17 18 17 16 17 19 20 20 20 20 19 19 18 18 18 18 19 19 20 20 20 21 22 22 22 21 20 20 19 18 17 17 15 14 13 11 10 10 10 11 13 14 15 16 15 15 15 15 14 13 13 14 14 14 14 14 14 14 14 14 14 14 14 14 14 15 15 15 15 15 15 15 15 15 15 14 14 13 13 11 10 9 8
19 19 18 17 18 17 17 17 18 20 20 19 19 19 19 19 19 18 17 18 19 20 20 21 21 22 22 22 22 21 20 19 18 17 16 15 14 12 11 11 10 11 12 14 16 16 16 15 15 14 14 14 13 13 14 14 14 14 14 14 14 14 13 13 13 13 14 14 14 14 14 14 14 14 13 13 13 13 13 13 13 12 12 10 9 8
17 18 17 17 16 16 17 18 19 19 19 17 15 15 17 19 20 19 18 18 19 20 21 21 22 22 22 23 22 22 21 20 19 18 16 15 14 13 12 12 11 12 13 15 17 17 16 15 14 14 14 13 14 14 14 14 14 13 13 13 13 12 12 12 12 12 12 12 12 12 12 11 11 11 11 10 10 10 10 11 11 11 11 10 9 8
17 17 16 17 16 16 17 17 16 16 17 17 15 14 16 18 20 20 18 18 19 21 22 22 22 22 22 23 22 22 22 21 20 19 17 16 15 14 14 14 14 14 15 17 18 18 16 15 14 13 13 13 14 14 14 13 13 12 12 11 11 11 11 10 10 10 10 10 10 9 9 9 9 9 8 8 8 8 8 8 8 9 10 10 9 8
15 15 14 14 15 16 17 17 16 15 17 18 19 19 18 18 19 19 17 17 18 20 21 21 21 21 21 21 21 22 22 21 20 19 18 17 16 16 16 16 16 17 19 19 19 19 18 16 15 14 13 13 13 13 13 12 12 11 10 10 10 9 9 9 9 8 8 8 8 8 8 8 7 7 7 7 6 6 6 6 7 7 8 9 9 8
14 13 12 12 13 15 16 17 17 18 19 20 20 20 18 17 18 18 17 15 16 17 18 19 19 19 19 20 20 21 21 21 21 19 18 18 17 17 17 18 19 20 21 21 21 20 19 18 16 15 14 13 13 13 12 12 11 10 10 9 9 9 8 8 8 7 7 7 7 7 7 7 6 6 6 6 6 6 5 5 6 6 8 9 9 8
15 14 13 13 13 15 17 18 19 19 20 20 20 19 17 16 17 18 17 16 16 17 16 15 14 14 17 19 20 20 20 21 21 20 19 19 19 18 19 20 21 22 22 22 22 21 20 18 16 15 14 14 13 13 12 11 10 10 9 9 9 9 8 8 7 7 7 7 7 7 7 7 6 6 6 6 6 6 5 5 5 6 7 9 9 9
15 15 15 14 14 15 17 19 20 20 19 19 19 19 19 18 18 19 18 18 17 17 16 15 11 8 10 15 19 21 21 21 20 20 19 20 20 20 20 22 23 23 22 22 21 20 19 18 16 15 15 14 13 13 12 11 10 10 9 9 9 9 8 8 7 7 7 8 8 8 7 7 6 6 6 6 6 6 6 5 5 6 7 9 9 9
16 16 16 15 14 15 17 19 20 20 19 19 20 20 20 20 20 20 20 19 18 17 17 16 14 11 8 11 18 23 23 22 21 20 19 20 21 21 22 22 22 22 21 20 19 18 18 17 16 16 15 14 14 13 12 11 11 10 10 9 9 9 8 8 7 7 8 9 9 8 8 7 6 6 6 7 6 6 6 6 6 6 7 8 9 9
16 17 17 16 16 16 17 19 20 19 19 19 19 19 19 19 19 20 20 20 20 19 18 17 16 16 14 14 19 24 25 24 22 20 18 19 21 22 22 21 21 20 19 18 17 17 16 16 16 16 15 15 14 13 13 12 11 11 10 10 10 9 9 8 7 8 9 9 9 9 8 7 7 7 7 7 7 7 7 6 6 7 7 7 8 9
17 18 19 18 17 17 17 19 21 21 21 20 20 19 20 19 20 20 20 20 21 20 19 18 18 18 17 16 19 24 27 26 23 20 18 19 20 22 22 21 20 18 18 17 17 16 16 16 16 16 16 15 15 14 13 13 12 12 12 11 11 10 9 8 8 9 10 10 9 9 8 7 7 7 8 8 8 7 7 7 7 7 7 7 8 9
18 19 21 20 18 17 17 20 22 22 22 21 21 20 21 20 20 20 20 20 20 20 19 18 17 18 17 17 19 22 27 27 24 20 17 17 19 22 23 22 21 19 18 18 18 17 17 17 17 17 16 15 15 14 14 13 13 13 13 12 11 11 10 9 9 10 10 10 9 9 8 7 7 7 8 8 8 8 7 7 7 7 7 7 8 8
19 19 21 21 20 19 19 21 22 22 22 22 22 22 21 20 20 20 21 21 20 19 18 18 17 17 17 17 19 22 26 29 26 22 17 15 17 21 23 23 22 21 19 19 19 18 18 18 17 17 16 15 15 14 14 14 13 13 13 12 12 11 10 10 10 10 10 10 9 9 8 8 7 8 8 8 8 7 7 7 7 7 7 7 8 8
22 21 20 20 20 21 21 20 20 21 22 23 23 23 22 22 22 22 22 22 21 19 18 19 18 17 16 17 18 20 24 28 28 24 18 14 15 20 23 24 24 23 21 20 19 19 19 18 18 17 16 16 15 15 14 14 13 13 13 12 12 11 11 10 11 11 10 10 10 9 9 8 8 8 8 8 8 8 8 8 8 7 7 7 7 7
25 23 21 19 19 19 20 20 20 21 22 23 23 23 22 22 22 22 22 22 22 21 20 20 18 15 14 15 17 20 23 27 28 25 19 15 15 19 23 24 25 24 22 21 20 19 19 18 18 18 17 16 16 15 15 14 14 13 13 12 12 11 11 11 11 11 11 10 10 9 9 8 8 8 8 8 8 8 8 8 8 8 8 8 7 7
26 24 22 20 18 18 19 19 20 21 21 22 22 22 22 21 21 20 20 21 21 21 19 17 14 12 13 15 18 21 24 27 29 26 19 15 14 17 21 23 24 24 21 20 20 20 19 19 19 18 17 16 16 15 15 14 13 13 13 12 12 12 11 11 11 11 11 11 10 10 9 9 9 8 8 8 8 9 9 9 9 9 9 9 8 8
25 24 23 21 19 18 18 18 19 19 20 20 21 22 22 22 21 19 19 19 20 20 18 15 12 12 13 15 17 21 24 28 30 28 21 16 14 16 19 21 23 23 21 20 19 19 19 19 19 18 18 17 16 15 15 14 13 13 13 13 13 12 12 11 11 11 11 11 11 10 9 9 9 8 8 7 7 7 8 8 9 9 9 9 9 9
24 24 23 22 20 18 17 17 17 17 18 18 20 21 22 22 21 20 19 20 22 21 18 14 11 10 11 12 15 19 24 28 30 28 24 18 15 16 19 20 22 22 20 18 18 17 17 17 18 18 17 17 16 15 14 14 14 14 14 14 13 12 12 12 11 11 11 11 11 10 10 9 9 9 8 7 7 7 7 7 7 7 7 8 8 9
22 23 23 22 20 18 17 16 16 16 16 17 18 20 22 23 22 21 20 22 23 22 19 15 12 9 9 11 13 17 22 26 29 28 25 19 15 16 20 21 22 21 19 17 16 15 15 15 16 16 16 16 15 15 15 15 15 15 15 15 14 13 12 12 11 11 12 12 11 11 10 9 9 9 8 8 7 7 7 6 6 6 6 6 7 7
21 22 22 22 21 20 18 16 16 15 16 16 18 20 22 23 24 23 23 24 24 21 19 18 15 12 10 11 13 15 19 23 27 28 25 19 15 16 21 22 22 22 19 16 12 11 12 13 14 14 14 15 15 15 15 15 15 16 15 15 15 14 13 12 12 12 12 12 12 11 11 10 9 9 8 8 8 7 7 7 7 7 7 7 6 5
21 21 21 22 21 20 19 18 17 16 16 17 18 20 22 23 24 24 24 25 24 22 19 18 16 14 12 11 9 9 12 20 26 28 26 20 16 17 21 22 23 23 21 15 9 5 7 11 13 13 13 13 14 14 15 15 15 15 15 15 15 15 14 12 12 12 13 13 13 12 11 11 10 9 9 8 8 8 7 8 8 8 8 8 7 6
22 22 21 21 21 21 20 19 18 17 17 17 19 20 22 23 23 23 24 25 25 24 21 18 17 16 16 11 6 4 7 19 27 29 28 22 18 19 23 23 23 24 22 17 9 3 3 8 12 14 13 13 13 14 15 15 15 14 14 14 14 14 14 13 12 13 14 14 14 13 13 12 12 11 10 9 9 8 8 8 8 8 8 8 7 7
22 22 21 21 21 21 20 20 19 18 18 19 20 21 22 23 23 23 24 25 26 25 22 20 18 19 19 16 11 7 8 19 27 31 30 24 20 21 24 24 24 24 23 20 13 6 3 5 10 14 14 14 14 14 14 14 14 13 13 13 14 14 13 13 13 14 15 15 14 14 14 13 13 12 11 10 9 9 8 8 8 8 8 8 8 7
21 21 20 20 20 20 20 20 19 19 20 21 22 22 23 23 24 23 23 24 25 25 24 22 20 20 20 19 16 13 13 18 25 31 32 27 22 20 23 24 24 24 23 20 15 8 4 5 9 12 14 15 15 14 14 14 13 13 13 13 14 14 14 15 16 16 17 16 15 15 14 14 13 13 12 11 10 9 9 8 8 8 9 9 8 8
20 19 19 19 19 19 20 20 20 21 22 23 23 24 24 24 24 23 22 22 23 24 25 24 23 22 21 18 16 14 13 16 22 28 32 30 24 21 23 24 24 24 23 19 15 9 5 7 9 10 12 15 16 15 14 14 13 13 13 14 15 16 16 17 18 18 18 18 17 16 15 14 13 13 13 12 11 10 9 9 8 8 9 9 9 9
19 19 19 19 19 20 20 21 22 23 24 24 24 24 24 24 24 23 21 20 21 22 23 24 24 25 24 22 18 16 15 16 20 25 31 32 28 24 24 25 25 24 23 20 16 11 7 9 11 11 11 13 14 15 15 14 14 14 15 15 16 17 18 19 19 19 19 18 17 17 16 15 14 13 13 13 12 12 11 10 9 9 9 9 9 9
19 19 19 19 20 20 21 22 23 24 25 25 25 25 24 24 23 22 21 20 20 21 22 22 23 24 24 25 23 22 20 18 19 22 28 32 31 28 25 24 25 25 23 20 17 13 11 11 12 13 12 11 11 12 14 15 15 15 16 16 17 17 18 18 19 19 19 18 17 17 16 15 14 14 13 13 13 13 12 11 10 10 10 10 10 10
20 19 19 20 20 20 21 22 23 25 25 25 25 24 24 23 23 22 21 20 20 21 21 21 21 21 22 22 22 21 20 18 17 19 24 29 31 29 26 25 26 26 24 22 19 17 14 13 12 12 12 10 9 10 13 16 17 17 18 17 17 17 17 17 18 18 18 17 17 16 16 15 14 13 13 13 13 13 13 12 12 11 11 11 11 11
19 19 19 20 20 20 21 22 23 24 25 25 24 24 23 23 23 22 21 20 20 20 21 21 20 19 19 18 17 16 15 15 15 17 20 25 29 30 27 26 25 25 25 24 23 20 17 14 11 10 10 9 9 11 15 17 19 19 19 19 18 17 17 17 17 17 17 17 16 16 15 14 13 13 12 13 13 13 13 13 12 12 11 12 12 12
19 19 19 20 21 21 21 21 22 23 24 24 24 24 24 23 23 22 21 20 20 20 20 20 19 18 17 16 15 13 12 13 13 15 18 22 26 28 27 25 24 24 24 23 23 22 20 16 13 11 10 9 10 11 14 17 19 20 20 20 19 18 18 17 17 17 16 16 16 15 14 14 13 13 13 13 14 14 14 13 13 12 12 12 13 14
20 20 20 21 22 22 22 21 22 23 24 24 24 24 24 23 23 22 21 20 20 20 20 20 19 18 17 16 15 13 12 12 13 15 17 20 24 25 25 24 23 23 22 22 22 21 20 18 16 15 14 12 12 12 14 16 17 18 19 18 18 18 20 19 18 18 17 17 16 16 15 15 15 15 15 15 15 15 15 14 13 13 12 13 13 14
20 20 20 21 21 21 21 21 22 23 24 24 24 24 23 23 22 22 21 20 20 20 19 19 19 18 17 16 15 14 14 14 15 16 17 20 22 23 23 22 21 21 21 22 21 20 19 17 16 15 14 13 13 13 14 15 15 16 18 18 18 20 21 20 20 19 19 18 18 17 17 16 16 16 16 16 17 16 16 15 14 14 13 13 13 14
20 20 20 20 20 21 21 21 22 23 24 24 24 24 24 24 24 23 22 21 20 20 19 19 18 18 17 16 15 15 15 15 16 17 18 19 20 21 20 19 19 20 20 21 20 19 18 16 15 15 14 14 13 13 13 13 13 14 15 17 17 16 16 18 20 20 20 19 19 18 17 17 17 17 17 17 17 16 16 15 15 14 13 13 13 13
20 20 20 20 21 22 22 22 23 24 24 24 24 24 24 24 24 24 24 23 22 21 21 20 19 19 18 18 17 16 16 16 16 17 18 18 19 19 18 17 17 18 20 21 20 19 17 16 15 14 13 13 13 14 14 14 13 13 13 13 15 13 7 11 16 18 18 18 17 17 16 16 15 15 15 15 15 15 15 15 14 13 13 12 12 13
20 20 20 21 22 23 23 24 24 25 25 24 24 24 24 24 24 24 24 24 23 23 22 21 20 19 18 18 18 18 17 17 17 17 18 18 18 17 17 16 16 17 19 20 20 19 18 16 15 13 12 12 12 13 14 15 14 14 13 13 13 13 10 9 11 13 14 15 14 14 14 13 12 13 13 14 14 15 15 14 14 13 13 13 13 13
20 20 21 22 23 24 24 25 25 25 25 24 24 24 24 24 24 24 24 24 23 23 23 22 20 18 16 17 18 19 18 18 18 18 18 18 17 17 16 16 16 17 17 18 19 19 19 17 16 14 13 12 12 12 13 14 14 14 14 13 13 13 12 9 9 10 11 12 12 12 11 11 11 11 13 14 14 14 14 14 14 13 13 13 13 14
21 22 23 24 24 25 25 25 25 24 23 23 23 24 24 24 24 23 23 24 24 23 23 22 20 17 15 16 17 19 19 19 19 19 18 18 17 16 16 16 16 17 17 16 16 17 17 17 17 16 14 13 12 12 12 13 14 14 14 14 14 13 12 10 10 10 10 10 10 10 10 10 10 11 13 13 14 14 14 14 14 14 13 13 13 13
23 24 24 25 25 24 24 24 24 23 22 22 22 23 24 25 24 23 23 23 24 23 22 21 19 18 17 18 18 19 19 19 20 20 19 18 17 17 16 16 16 17 17 17 16 15 15 15 15 16 15 14 13 13 13 13 13 13 14 14 14 14 13 12 11 11 10 10 10 10 10 10 11 11 12 13 13 14 14 14 14 13 13 12 12 12
24 25 25 24 24 23 23 23 23 22 21 21 21 23 24 25 24 23 22 23 23 23 21 20 18 17 18 18 19 20 20 20 20 21 21 20 19 18 17 16 16 17 17 17 17 16 15 15 15 15 15 15 14 15 15 15 14 13 13 13 13 14 14 14 13 12 11 11 10 10 10 11 11 11 11 12 13 14 14 14 13 13 12 11 10 10
25 25 24 24 23 22 22 22 22 22 21 20 21 22 23 24 23 23 23 23 23 22 20 19 18 17 16 17 18 19 20 20 21 21 21 21 20 19 18 17 17 17 16 16 15 15 15 15 14 15 15 15 15 15 16 16 15 15 14 13 13 13 14 14 13 13 12 12 11 11 11 11 11 10 10 11 13 13 13 12 12 11 11 10 9 8
24 24 24 24 23 22 22 22 22 21 20 21 21 22 22 22 22 22 23 23 23 22 21 19 18 17 16 17 18 18 19 19 19 20 21 22 22 21 19 18 17 16 15 14 13 12 12 12 13 14 15 15 15 15 15 16 16 15 15 15 14 14 14 14 14 13 13 13 12 12 12 12 11 11 11 11 12 13 13 12 11 10 10 9 9 8
23 24 24 24 23 22 22 22 22 21 21 21 22 22 22 21 21 21 22 22 22 21 20 20 19 18 17 17 18 18 19 19 19 19 20 22 22 22 21 19 18 17 14 11 10 9 8 7 7 10 14 16 16 15 15 15 15 15 15 16 16 15 14 14 14 14 14 14 14 13 13 13 13 13 13 12 12 13 13 13 12 11 10 9 9 9
Wind_Direction
259 260 260 259 257 256 258 262 265 264 261 259 256 252 249 246 242 235 228 224 223 224 226 225 222 220 220 219 216 213 212 213 215 216 217 218 218 218 220 225 231 237 240 240 239 237 235 231 225 216 207 198 191 187 186 186 184 177 167 162 163 168 174 175 174 172 170 171 175 179 185 192 196 199 201 202 204 207 210 209 209 209 209 207 203 198
257 258 258 259 259 258 259 261 262 260 258 256 254 252 249 245 241 235 230 226 225 226 226 226 224 223 224 222 218 214 212 211 211 211 213 214 215 216 219 225 231 236 238 239 238 233 224 216 206 198 193 189 185 182 182 182 181 179 175 171 167 166 167 166 165 162 162 166 174 182 191 198 202 204 204 206 209 213 217 216 212 209 207 206 204 201
258 257 255 257 257 256 255 256 256 256 254 252 252 251 248 244 239 234 230 227 227 227 227 227 226 226 225 223 220 217 214 211 209 208 209 211 213 215 219 224 229 234 237 238 234 224 211 200 192 188 186 185 183 180 178 178 178 176 172 167 165 164 161 160 159 159 161 168 177 186 194 200 203 203 202 204 207 211 215 215 213 210 208 208 205 202
259 256 253 254 254 252 251 250 249 248 246 246 247 247 245 241 238 234 231 229 228 228 228 227 225 224 223 220 218 215 213 210 208 207 208 209 212 215 218 223 227 232 236 236 227 213 200 193 188 185 184 182 181 178 177 176 176 175 172 169 169 169 167 165 165 168 173 178 185 192 197 201 201 201 200 201 204 208 212 214 216 215 215 214 212 207
259 256 254 252 247 245 246 245 243 240 239 239 239 239 239 237 237 236 233 231 229 228 227 225 222 219 217 214 211 209 207 206 205 205 206 208 211 214 218 222 227 232 235 230 216 202 192 189 188 186 184 181 180 179 178 177 177 177 175 173 173 174 175 174 175 177 182 187 193 198 202 204 203 203 203 203 205 207 211 215 218 221 222 223 221 216
263 259 256 248 240 237 240 240 239 236 234 233 233 233 234 235 235 235 232 230 228 226 223 220 216 212 210 208 205 202 200 200 200 201 204 207 210 213 217 222 228 231 230 219 204 193 189 189 189 188 186 184 182 182 181 181 181 181 180 179 178 179 181 184 186 188 191 196 201 206 210 212 212 212 211 211 212 213 216 219 223 226 228 230 230 227
264 258 251 241 236 236 236 236 237 236 232 229 229 230 230 231 232 231 229 227 225 222 217 213 209 205 202 201 198 195 193 195 197 200 203 206 210 214 218 223 226 226 219 206 195 190 189 189 189 189 187 187 186 186 185 185 185 185 186 186 186 187 190 194 197 201 204 207 212 216 220 223 225 225 225 224 225 226 228 229 231 234 236 238 238 236
257 251 242 231 230 232 234 234 235 235 233 229 226 224 225 226 226 225 225 223 221 217 211 205 201 198 195 193 191 190 190 191 194 197 201 205 209 214 218 222 222 217 208 198 191 188 189 189 189 189 190 190 190 190 190 190 190 190 191 193 195 197 200 204 209 213 218 221 225 228 231 234 237 239 240 240 241 241 241 241 241 241 242 243 243 242
250 246 239 231 227 225 226 228 232 233 231 227 224 221 218 217 219 220 219 218 216 212 206 199 193 190 189 188 187 188 189 192 194 197 200 203 207 211 214 216 214 208 201 193 189 188 189 189 190 191 193 193 193 193 194 195 196 197 198 199 202 206 210 215 220 225 229 234 237 240 242 245 247 249 250 251 251 251 250 249 247 246 244 242 241 241
248 246 241 236 231 227 223 222 226 229 227 223 222 222 218 214 212 212 212 212 212 209 204 197 190 186 186 185 185 186 188 191 195 198 202 205 207 209 210 209 206 200 195 191 189 189 189 190 191 193 194 194 195 197 199 201 203 204 205 207 211 215 220 225 229 234 238 242 246 248 250 251 252 254 254 255 254 254 252 251 248 245 241 237 234 233
246 245 240 232 228 227 224 222 224 224 222 217 216 218 219 217 212 206 202 205 207 206 201 196 191 186 183 183 184 186 187 188 191 195 200 203 205 207 207 205 201 196 191 190 190 190 190 191 192 193 194 195 197 201 204 207 209 211 213 216 220 224 228 232 236 240 244 247 250 252 253 253 253 253 253 253 253 252 250 248 245 241 235 229 224 221
242 240 234 227 222 218 219 221 222 220 214 208 207 211 216 217 215 210 203 202 202 201 198 195 192 188 185 183 184 186 188 188 189 191 194 198 200 201 200 199 195 191 190 191 192 192 192 192 192 193 195 197 200 205 209 212 214 217 219 223 227 230 232 235 239 242 246 249 251 252 251 250 248 247 246 246 246 246 245 243 240 235 228 220 213 208
237 233 225 219 214 211 211 213 212 209 205 203 205 209 214 215 214 212 209 207 205 202 198 195 192 190 188 187 186 187 189 190 192 193 194 196 198 199 196 193 190 188 189 192 193 194 194 193 193 194 196 200 204 209 213 217 219 222 224 227 230 232 234 237 240 244 247 250 250 249 247 244 241 238 235 234 234 235 235 235 232 226 217 209 201 195
229 222 212 207 205 206 207 205 203 202 204 209 213 215 216 215 212 209 207 207 207 204 200 196 193 192 190 189 189 190 191 192 193 195 196 198 200 199 196 192 190 190 191 193 193 194 195 194 193 194 197 203 208 213 217 220 223 225 229 232 234 237 239 241 244 246 248 247 245 244 242 239 236 230 224 220 219 220 221 223 221 214 204 197 191 187
220 211 204 204 206 207 207 206 207 210 214 217 218 217 215 213 209 205 201 201 201 201 198 196 195 195 193 191 190 192 194 194 193 192 193 196 199 199 196 193 192 192 194 195 195 196 198 198 197 196 199 205 212 217 221 223 226 229 233 237 241 244 246 249 250 249 245 239 236 235 237 236 233 224 214 208 206 206 208 210 208 202 193 187 183 182
219 211 208 210 212 212 212 211 211 214 218 220 218 213 208 205 204 202 198 196 193 190 188 190 195 200 202 199 195 193 194 194 193 191 189 191 194 197 195 194 193 194 196 197 197 199 201 203 203 203 205 209 215 220 224 227 230 233 237 241 245 249 252 254 253 246 235 227 225 227 231 234 230 219 205 199 198 198 198 197 196 192 186 183 181 181
220 215 214 215 215 215 215 215 216 218 219 217 215 211 207 205 203 200 197 193 188 185 187 188 190 198 209 208 201 196 194 193 192 192 190 188 191 193 194 195 195 195 196 198 200 203 204 206 207 208 209 212 217 222 226 230 233 236 240 244 248 251 255 255 249 236 222 216 217 221 226 230 227 214 199 194 193 192 189 188 188 186 184 183 182 182
220 217 216 217 218 217 215 215 217 218 217 214 213 211 210 208 205 201 196 192 189 188 192 195 198 200 200 207 205 200 194 191 190 189 189 189 190 191 192 194 196 197 197 199 202 206 208 210 211 211 212 214 217 221 226 230 233 236 240 244 248 252 254 251 239 223 211 210 212 217 222 226 221 209 197 193 189 186 184 182 181 182 183 184 185 185
222 219 217 220 222 221 217 216 216 215 213 211 209 207 205 206 204 201 197 196 196 196 196 199 203 206 207 208 206 201 195 191 190 188 186 188 190 190 190 191 193 196 197 198 201 206 209 211 213 214 214 215 217 221 226 230 232 234 237 241 245 249 250 244 228 212 205 207 210 215 219 221 217 207 197 192 188 184 181 179 179 179 181 184 188 190
226 224 223 223 223 221 219 218 218 217 214 213 210 205 202 202 201 200 200 200 200 200 200 202 206 210 211 211 208 202 196 192 188 186 186 188 189 190 189 188 190 192 195 197 200 205 208 211 213 215 216 217 220 223 228 232 233 234 236 239 242 244 243 232 216 205 204 206 209 212 215 216 212 206 199 194 190 185 181 179 178 178 180 185 190 192
228 227 226 224 223 222 221 222 223 223 220 216 210 204 201 200 200 201 202 201 201 202 203 205 209 211 212 212 209 204 198 192 187 185 186 188 191 192 191 190 190 191 194 197 201 205 209 213 215 217 219 221 224 228 232 236 237 237 237 237 238 238 233 220 208 202 202 203 206 208 210 208 207 205 201 197 192 187 183 181 180 181 184 188 191 193
228 230 231 229 226 225 226 227 227 226 223 217 209 203 201 200 199 200 202 200 200 201 203 207 210 211 211 212 211 207 201 196 191 187 185 185 192 196 195 194 194 195 195 198 202 207 210 215 218 221 223 226 229 233 236 239 240 239 236 235 233 230 222 211 204 201 201 202 204 206 207 204 203 202 200 197 193 188 185 184 184 186 190 193 194 194
230 231 233 232 230 229 230 230 229 227 225 220 216 212 210 206 203 201 202 200 199 199 200 203 204 205 206 207 207 205 202 199 196 192 185 185 193 198 197 197 198 199 199 202 205 208 212 216 220 223 226 229 232 236 239 241 241 238 234 230 226 220 212 205 202 201 201 201 203 205 205 201 198 196 195 194 191 188 187 187 188 190 192 194 195 195
233 233 232 232 230 230 229 229 228 227 225 224 223 222 220 216 212 209 206 203 199 198 198 199 198 197 198 199 198 197 197 198 197 194 190 191 195 197 197 198 199 201 203 206 208 211 214 218 222 225 228 231 234 237 240 240 238 234 229 223 217 211 205 202 201 201 200 201 203 204 201 198 196 195 194 193 191 190 190 190 191 192 193 194 194 194
233 232 231 229 228 226 225 226 227 226 224 222 221 220 218 215 211 208 204 200 197 195 194 189 184 181 185 186 187 189 193 195 195 194 192 192 191 193 195 196 198 200 202 207 211 214 217 221 224 228 230 233 235 237 238 237 233 228 221 214 209 205 202 202 201 201 200 200 201 201 199 196 195 195 196 196 195 194 195 196 197 197 197 197 197 196
232 230 228 227 225 223 221 221 223 224 223 221 218 214 211 207 202 197 193 191 190 188 182 177 176 179 181 181 183 187 191 194 195 195 193 188 182 183 191 194 197 199 199 204 210 214 218 222 226 229 231 233 235 235 233 230 225 219 213 208 204 202 201 201 201 201 201 200 200 199 198 196 196 196 198 199 200 200 201 203 204 204 204 204 204 204
230 228 226 224 222 220 217 216 217 219 220 219 216 213 208 200 193 186 183 185 186 184 179 182 186 186 184 185 190 192 192 192 193 195 195 190 179 177 185 190 193 195 196 200 206 213 217 223 227 230 231 232 232 230 226 222 218 213 208 204 202 201 201 202 201 201 201 201 200 198 197 197 198 198 199 201 202 203 205 206 207 208 210 212 214 213
228 226 224 222 221 219 216 214 214 215 215 215 214 211 206 198 189 184 185 188 187 185 185 190 190 187 187 193 197 196 193 192 193 194 195 194 184 177 183 185 188 191 189 191 199 208 214 221 227 229 229 229 227 224 219 215 212 209 206 204 202 201 201 201 202 202 202 201 200 198 197 197 198 199 200 201 202 204 205 206 206 206 210 218 224 222
226 225 223 222 220 219 217 216 215 214 214 214 212 211 208 203 197 194 195 193 188 187 192 196 196 191 185 185 189 193 196 195 194 193 194 192 186 181 183 181 184 186 183 178 182 197 208 217 223 225 225 223 220 216 213 211 210 208 207 206 205 203 201 201 202 202 202 201 200 198 196 195 196 196 198 200 201 203 205 205 207 208 212 220 226 225
223 222 221 221 220 220 219 218 217 215 213 213 212 211 210 210 208 206 203 196 191 189 195 198 196 187 173 163 165 184 201 202 197 193 192 189 183 180 179 178 181 185 182 172 162 175 204 211 215 217 218 217 214 210 208 208 208 208 208 207 206 204 201 201 201 201 202 200 199 197 196 196 196 196 196 196 198 200 202 205 209 213 216 219 220 219
221 220 220 219 219 218 218 218 216 213 210 209 209 210 210 212 212 211 207 201 196 194 196 197 193 183 171 160 155 178 206 206 200 194 193 191 185 180 178 175 179 185 188 180 166 148 200 203 204 208 212 212 210 207 205 205 206 206 207 207 205 202 199 198 199 200 200 199 197 197 198 199 200 200 198 196 195 196 198 202 208 214 218 218 217 216
220 219 218 218 217 216 215 214 212 208 204 203 204 207 208 209 210 210 209 206 203 200 197 196 192 186 182 183 188 197 201 203 199 195 194 192 188 184 182 179 179 183 190 191 186 169 161 184 191 196 203 207 208 207 204 204 204 204 204 203 201 197 194 195 197 197 196 196 196 198 202 206 208 208 207 204 202 200 199 200 206 213 217 218 217 215
218 217 216 214 213 211 210 209 206 202 197 197 199 203 205 207 207 208 209 210 208 205 200 197 192 189 188 192 197 201 202 201 198 196 195 193 189 184 184 182 181 182 187 193 195 190 170 166 175 184 194 202 207 208 206 204 203 202 201 198 195 191 190 192 195 196 195 196 198 202 208 213 215 217 217 217 216 214 211 209 210 214 218 218 217 215
210 209 208 207 205 204 203 201 198 194 192 193 196 199 202 204 204 205 207 209 210 209 207 203 199 194 189 191 194 198 201 202 199 197 196 196 192 187 185 184 183 183 184 188 191 190 175 165 165 170 184 196 203 208 208 206 202 200 197 195 193 191 190 193 195 197 199 201 204 209 214 219 222 224 225 226 227 228 228 226 223 222 223 223 220 216
199 198 197 196 195 194 193 191 190 189 189 191 194 197 200 201 202 202 203 205 207 209 210 210 209 205 199 194 191 192 197 202 200 198 197 198 197 192 188 187 186 185 183 185 185 180 164 165 166 166 169 182 195 204 208 205 200 195 194 194 195 195 196 198 200 202 205 208 212 217 221 226 228 230 231 232 234 236 238 238 235 231 228 228 226 222
188 188 188 187 187 185 185 185 185 185 187 190 193 196 198 199 200 200 201 201 202 204 206 210 213 214 213 210 206 204 206 207 203 199 199 201 201 198 191 191 191 190 185 184 183 178 163 159 164 167 163 165 180 195 201 200 197 193 192 194 197 200 202 205 206 208 211 214 218 222 227 231 234 235 236 237 238 239 241 242 240 236 231 230 231 230
185 185 185 184 183 182 182 183 184 184 186 189 191 194 195 197 198 199 199 199 200 201 203 205 208 211 214 217 219 220 219 216 208 201 200 203 204 203 198 196 197 195 190 185 182 177 166 157 157 161 162 162 170 183 191 193 193 192 192 194 197 201 205 208 211 213 216 219 223 226 230 234 237 239 240 240 240 241 241 242 241 239 234 231 230 231
187 187 187 186 184 183 182 182 183 185 186 187 189 191 193 195 197 197 198 198 198 199 201 202 203 205 207 210 215 221 222 217 210 203 201 203 205 206 204 201 200 200 199 194 188 181 171 162 159 162 169 172 176 180 184 187 190 192 193 195 197 201 205 209 212 215 218 221 224 227 232 236 240 243 246 246 245 244 243 243 243 242 239 234 230 229
190 190 189 188 187 186 184 184 184 185 186 187 189 191 192 194 195 196 196 196 197 199 200 201 200 200 200 201 202 205 208 207 205 201 200 201 204 206 207 204 202 201 202 200 195 189 181 175 172 171 170 170 173 179 186 188 191 192 194 195 198 202 206 210 213 216 218 221 223 226 230 236 241 245 249 251 251 249 247 247 247 247 246 241 235 230
192 191 191 191 190 190 188 187 186 185 185 186 189 191 192 192 193 193 194 194 195 197 200 200 200 198 196 194 193 192 191 192 194 196 198 200 203 206 208 208 205 202 200 199 197 194 189 185 183 179 173 169 169 175 182 189 193 193 193 194 200 205 206 210 214 218 222 224 226 229 233 239 243 247 249 252 252 252 252 252 253 253 252 247 240 233
193 193 193 193 192 192 191 189 188 187 186 187 187 188 189 190 189 188 190 190 192 194 196 197 195 193 191 189 187 185 182 182 186 191 196 200 203 205 207 209 208 203 197 194 194 194 193 191 188 185 181 177 176 178 184 190 193 194 193 196 201 207 209 213 218 222 226 230 233 237 240 243 246 247 249 251 253 255 257 257 258 257 255 250 243 235
194 194 193 191 190 190 189 188 187 187 188 187 186 186 187 188 187 185 184 183 183 186 189 188 185 180 176 175 177 179 178 180 183 188 193 197 201 203 205 206 206 202 195 190 188 190 192 192 190 187 184 182 180 179 183 190 193 196 198 200 203 207 213 218 222 225 228 232 236 240 242 244 246 247 248 250 253 256 257 257 257 255 253 249 244 239
195 194 191 188 186 186 186 185 185 185 186 185 185 186 187 188 187 185 182 178 177 178 180 181 179 174 166 163 165 170 174 177 180 184 188 192 196 198 199 200 200 198 193 187 182 182 185 187 186 185 186 187 186 182 179 185 190 195 200 203 200 197 199 212 217 221 225 230 234 237 240 242 244 246 247 249 251 252 253 253 252 249 246 244 242 240
191 189 186 184 182 182 182 182 182 182 183 182 182 183 185 186 186 184 180 177 175 174 174 175 175 171 162 159 161 165 169 173 177 180 183 186 189 191 193 192 193 194 193 188 182 178 178 179 179 179 180 184 186 186 184 184 187 191 196 201 202 201 202 206 209 211 216 222 227 231 235 238 241 243 245 245 246 246 247 247 245 242 239 238 238 239
186 183 181 180 179 178 178 179 180 181 181 181 181 181 181 183 183 181 177 174 172 171 171 171 169 162 155 156 160 162 165 168 172 176 180 183 185 187 187 186 186 187 189 189 187 183 179 176 176 176 177 179 181 183 183 184 186 189 193 198 203 208 215 220 217 214 214 218 222 226 230 233 237 239 240 240 240 239 239 240 239 238 236 235 236 238
181 179 178 177 177 177 177 178 179 179 179 179 179 179 179 180 180 179 177 174 171 169 170 172 169 162 158 159 161 162 163 166 169 172 176 179 183 185 185 184 182 181 181 183 186 187 187 184 181 180 179 179 179 180 182 184 186 189 193 197 201 206 212 219 223 223 221 222 224 226 228 231 233 235 236 235 234 234 234 236 237 238 238 238 239 241
178 177 176 176 176 176 177 177 177 176 175 175 176 177 177 177 177 176 176 175 172 170 169 171 172 169 165 164 164 164 164 165 168 171 173 176 179 181 182 182 181 179 178 178 179 182 186 188 189 188 187 185 183 183 185 186 188 190 193 197 201 205 209 214 219 223 226 227 227 226 228 229 231 232 233 232 232 232 233 236 239 241 243 243 243 243
178 177 176 176 175 174 174 174 174 174 173 173 174 175 176 177 176 175 174 175 173 171 168 169 170 169 168 168 169 169 169 168 169 171 173 174 177 179 179 179 179 180 180 181 181 182 185 187 190 193 196 195 193 191 191 190 190 192 195 199 203 207 210 214 217 221 225 228 229 229 230 230 229 230 231 231 232 234 236 238 239 241 243 244 243 243
178 177 177 176 175 174 174 174 174 174 172 172 172 173 175 177 177 177 176 175 174 172 171 170 169 167 167 169 172 173 172 172 172 173 174 176 177 178 178 179 179 179 180 183 185 187 189 191 195 198 202 203 202 201 199 197 196 196 197 201 205 210 212 214 217 220 223 226 228 230 233 234 236 236 235 232 234 238 241 242 241 239 239 240 241 242
179 178 178 177 177 176 176 176 175 174 173 171 170 171 173 175 177 179 178 177 176 175 174 173 171 168 167 169 172 173 173 173 173 175 177 179 180 180 179 180 180 179 179 181 185 190 193 197 202 206 209 210 209 207 203 202 201 201 200 203 207 211 214 215 216 218 221 222 224 227 229 233 236 238 237 234 236 241 245 244 241 236 233 234 238 242
177 179 179 179 179 178 178 178 177 176 174 172 171 171 171 173 175 177 178 178 177 177 177 176 174 171 169 170 172 174 176 175 176 177 180 182 182 182 182 182 181 178 174 173 177 184 191 199 211 218 218 215 214 211 206 201 199 199 202 204 207 210 213 214 214 216 218 219 221 223 225 228 230 233 234 235 237 240 244 244 240 233 227 228 233 239